| time (UTC) | temp C | wind direction | speed KPH | gust KPH | rain 1hr cm | rain 24hr cm | rain mn cm | humidity % | barometer mb |
| 20260506103033 | 8 | 21 | 0.0 | 4.8 | 0.00 | 0.05 | 0.00 | 100 | |
| 20260506102532 | 8 | 33 | 4.8 | 4.8 | 0.00 | 0.05 | 0.00 | 100 | |
| 20260506102034 | 8 | 63 | 0.0 | 3.2 | 0.00 | 0.05 | 0.00 | 100 | |
| 20260506101533 | 8 | 21 | 0.0 | 1.6 | 0.00 | 0.05 | 0.00 | 100 | |
| 20260506101033 | 8 | 19 | 0.0 | 3.2 | 0.00 | 0.05 | 0.00 | 100 | |
| 20260506100533 | 8 | 46 | 0.0 | 4.8 | 0.00 | 0.05 | 0.00 | 100 | |
| 20260506100033 | 9 | 57 | 1.6 | 3.2 | 0.00 | 0.05 | 0.00 | 100 | |
| 20260506095533 | 9 | 264 | 0.0 | 0.0 | 0.00 | 0.05 | 0.00 | 100 | |
| 20260506095033 | 9 | 264 | 0.0 | 0.0 | 0.00 | 0.05 | 0.00 | 100 | |
| 20260506094533 | 9 | 264 | 0.0 | 0.0 | 0.00 | 0.05 | 0.00 | 100 | |
| 20260506094033 | 9 | 264 | 0.0 | 0.0 | 0.00 | 0.05 | 0.00 | 100 | |
| 20260506093533 | 9 | 264 | 0.0 | 0.0 | 0.00 | 0.05 | 0.00 | 100 | |
| 20260506093033 | 9 | 264 | 0.0 | 0.0 | 0.00 | 0.05 | 0.00 | 100 | |
| 20260506092533 | 9 | 264 | 0.0 | 0.0 | 0.00 | 0.05 | 0.00 | 100 | |
| 20260506092033 | 9 | 264 | 0.0 | 0.0 | 0.00 | 0.05 | 0.00 | 100 | |
| 20260506091533 | 9 | 264 | 0.0 | 0.0 | 0.00 | 0.05 | 0.00 | 100 | |
| 20260506091033 | 9 | 264 | 0.0 | 0.0 | 0.00 | 0.05 | 0.00 | 100 | |
| 20260506090533 | 9 | 264 | 0.0 | 0.0 | 0.00 | 0.05 | 0.00 | 100 | |
| 20260506090033 | 9 | 264 | 0.0 | 0.0 | 0.00 | 0.05 | 0.00 | 100 | |
| 20260506085533 | 9 | 264 | 0.0 | 4.8 | 0.00 | 0.05 | 0.00 | 100 | |
| 20260506085033 | 9 | 247 | 1.6 | 3.2 | 0.00 | 0.05 | 0.00 | 100 | |
| 20260506084533 | 9 | 265 | 0.0 | 0.0 | 0.00 | 0.05 | 0.00 | 100 | |
| 20260506084033 | 9 | 265 | 0.0 | 1.6 | 0.00 | 0.05 | 0.00 | 100 | |
| 20260506083533 | 9 | 253 | 0.0 | 0.0 | 0.00 | 0.05 | 0.00 | 100 | |
| 20260506083033 | 8 | 253 | 0.0 | 0.0 | 0.00 | 0.05 | 0.00 | 100 | |
| 20260506082533 | 9 | 253 | 0.0 | 0.0 | 0.00 | 0.05 | 0.00 | 100 | |
| 20260506082033 | 8 | 253 | 0.0 | 0.0 | 0.00 | 0.05 | 0.00 | 100 | |
| 20260506081533 | 8 | 253 | 0.0 | 0.0 | 0.00 | 0.05 | 0.00 | 100 | |
| 20260506081033 | 9 | 253 | 0.0 | 0.0 | 0.00 | 0.05 | 0.00 | 100 | |
| 20260506080533 | 8 | 253 | 0.0 | 0.0 | 0.00 | 0.05 | 0.00 | 100 | |
| 20260506073033 | 8 | 219 | 0.0 | 3.2 | 0.00 | 0.05 | 0.00 | 100 | |
| 20260506072533 | 9 | 240 | 0.0 | 0.0 | 0.00 | 0.05 | 0.00 | 100 | |
| 20260506072033 | 9 | 240 | 0.0 | 0.0 | 0.00 | 0.05 | 0.00 | 100 | |
| 20260506071533 | 8 | 241 | 0.0 | 3.2 | 0.00 | 0.05 | 0.00 | 100 | |
| 20260506071033 | 9 | 277 | 0.0 | 0.0 | 0.00 | 0.05 | 0.00 | 100 | |
| 20260506070533 | 9 | 277 | 0.0 | 0.0 | 0.00 | 0.05 | 0.00 | 100 | |
| 20260506062033 | 9 | 258 | 0.0 | 3.2 | 0.00 | 0.05 | 0.00 | 100 | |
| 20260506061533 | 9 | 208 | 0.0 | 3.2 | 0.00 | 0.05 | 0.00 | 100 | |
| 20260506061033 | 9 | 208 | 0.0 | 4.8 | 0.00 | 0.05 | 0.00 | 100 | |
| 20260506060533 | 9 | 240 | 3.2 | 8.0 | 0.00 | 0.05 | 0.00 | 100 | |
| 20260506051033 | 9 | 192 | 0.0 | 6.4 | 0.00 | 0.05 | 0.00 | 100 | |
| 20260506050533 | 10 | 201 | 0.0 | 4.8 | 0.00 | 0.05 | 0.00 | 100 | |
| 20260506045033 | 9 | 196 | 0.0 | 3.2 | 0.00 | 0.05 | 0.00 | 100 | |
| 20260506044533 | 10 | 239 | 0.0 | 6.4 | 0.00 | 0.05 | 0.00 | 100 | |
| 20260506044033 | 10 | 233 | 1.6 | 4.8 | 0.00 | 0.05 | 0.00 | 100 | |
| 20260506043533 | 9 | 156 | 0.0 | 1.6 | 0.00 | 0.05 | 0.00 | 100 | |
| 20260506043033 | 9 | 226 | 1.6 | 3.2 | 0.00 | 0.05 | 0.00 | 100 | |
| 20260506042533 | 9 | 205 | 0.0 | 3.2 | 0.00 | 0.05 | 0.00 | 100 | |
| 20260506042033 | 10 | 144 | 0.0 | 0.0 | 0.00 | 0.05 | 0.00 | 100 | |
| 20260506041533 | 10 | 144 | 0.0 | 0.0 | 0.00 | 0.05 | 0.00 | 100 | |
| 20260506041033 | 10 | 144 | 0.0 | 0.0 | 0.00 | 0.05 | 0.00 | 100 | |
| 20260506040533 | 9 | 144 | 0.0 | 0.0 | 0.00 | 0.05 | 0.00 | 100 | |
| 20260506040033 | 10 | 147 | 0.0 | 0.0 | 0.00 | 0.05 | 0.00 | 100 | |
| 20260506035533 | 9 | 147 | 0.0 | 0.0 | 0.00 | 0.05 | 0.00 | 100 | |
| 20260506035033 | 10 | 147 | 0.0 | 1.6 | 0.00 | 0.05 | 0.00 | 100 | |
| 20260506034533 | 9 | 187 | 0.0 | 0.0 | 0.00 | 0.05 | 0.00 | 100 | |
| 20260506034033 | 10 | 178 | 0.0 | 0.0 | 0.00 | 0.05 | 0.00 | 100 | |
| 20260506033533 | 10 | 178 | 0.0 | 0.0 | 0.00 | 0.05 | 0.00 | 100 | |
| 20260506033033 | 10 | 178 | 0.0 | 1.6 | 0.00 | 0.05 | 0.00 | 100 | |
| 20260506032533 | 10 | 215 | 0.0 | 0.0 | 0.00 | 0.05 | 0.00 | 100 | |
| 20260506032033 | 10 | 215 | 0.0 | 0.0 | 0.00 | 0.05 | 0.00 | 100 | |
| 20260506031533 | 10 | 215 | 0.0 | 4.8 | 0.00 | 0.05 | 0.00 | 100 | |
| 20260506031033 | 10 | 194 | 3.2 | 3.2 | 0.00 | 0.05 | 0.00 | 100 | |
| 20260506030533 | 10 | 281 | 0.0 | 0.0 | 0.00 | 0.05 | 0.00 | 100 | |
| 20260506030033 | 10 | 281 | 0.0 | 0.0 | 0.00 | 0.05 | 0.00 | 100 | |
| 20260506025533 | 10 | 281 | 0.0 | 0.0 | 0.00 | 0.05 | 0.00 | 100 | |
| 20260506025033 | 10 | 281 | 0.0 | 0.0 | 0.00 | 0.05 | 0.00 | 100 | |
| 20260506024533 | 10 | 281 | 0.0 | 0.0 | 0.00 | 0.05 | 0.00 | 100 | |
| 20260506024033 | 10 | 281 | 0.0 | 0.0 | 0.00 | 0.05 | 0.00 | 100 | |
| 20260506023533 | 10 | 281 | 0.0 | 0.0 | 0.00 | 0.05 | 0.00 | 100 | |
| 20260506023033 | 10 | 281 | 0.0 | 0.0 | 0.00 | 0.05 | 0.00 | 100 | |
| 20260506022533 | 11 | 281 | 0.0 | 0.0 | 0.00 | 0.05 | 0.00 | 100 | |
| 20260506022033 | 11 | 281 | 0.0 | 0.0 | 0.00 | 0.05 | 0.00 | 100 | |
| 20260506021533 | 11 | 281 | 0.0 | 0.0 | 0.00 | 0.05 | 0.00 | 100 | |
| 20260506021033 | 11 | 281 | 0.0 | 0.0 | 0.00 | 0.05 | 0.00 | 100 | |
| 20260506020533 | 11 | 281 | 0.0 | 4.8 | 0.00 | 0.05 | 0.00 | 100 | |
| 20260506020033 | 11 | 226 | 0.0 | 0.0 | 0.00 | 0.05 | 0.00 | 100 | |
| 20260506015533 | 11 | 226 | 0.0 | 0.0 | 0.00 | 0.05 | 0.00 | 100 | |
| 20260506015033 | 12 | 226 | 0.0 | 0.0 | 0.00 | 0.05 | 0.00 | 100 | |
| 20260506014534 | 12 | 226 | 0.0 | 0.0 | 0.00 | 0.05 | 0.00 | 100 | |
| 20260506014034 | 12 | 226 | 0.0 | 0.0 | 0.00 | 0.05 | 0.00 | 100 | |
| 20260506013534 | 11 | 226 | 0.0 | 1.6 | 0.00 | 0.05 | 0.00 | 100 | |
| 20260506013034 | 12 | 239 | 0.0 | 1.6 | 0.00 | 0.05 | 0.00 | 100 | |
| 20260506012534 | 12 | 281 | 0.0 | 0.0 | 0.00 | 0.05 | 0.00 | 100 | |
| 20260506012034 | 12 | 281 | 0.0 | 0.0 | 0.00 | 0.05 | 0.00 | 100 | |
| 20260506011534 | 12 | 281 | 0.0 | 0.0 | 0.00 | 0.05 | 0.00 | 100 | |
| 20260506011034 | 12 | 281 | 0.0 | 0.0 | 0.00 | 0.05 | 0.00 | 100 | |
| 20260506010534 | 12 | 281 | 0.0 | 0.0 | 0.00 | 0.05 | 0.00 | 100 | |
| 20260506010034 | 12 | 281 | 0.0 | 0.0 | 0.00 | 0.05 | 0.00 | 100 | |
| 20260506005534 | 12 | 281 | 0.0 | 1.6 | 0.00 | 0.05 | 0.00 | 100 | |
| 20260506005034 | 12 | 254 | 0.0 | 3.2 | 0.00 | 0.05 | 0.00 | 100 | |
| 20260506004534 | 12 | 230 | 0.0 | 1.6 | 0.00 | 0.05 | 0.00 | 100 | |
| 20260506004034 | 12 | 329 | 1.6 | 1.6 | 0.00 | 0.05 | 0.00 | 100 | |
| 20260506003534 | 12 | 237 | 0.0 | 4.8 | 0.00 | 0.05 | 0.00 | 100 | |
| 20260506003034 | 13 | 261 | 3.2 | 8.0 | 0.00 | 0.05 | 0.00 | 100 | |
| 20260506002534 | 13 | 247 | 1.6 | 4.8 | 0.00 | 0.05 | 0.00 | 100 | |
| 20260506002034 | 13 | 295 | 0.0 | 11.3 | 0.00 | 0.05 | 0.00 | 100 | |
| 20260506001534 | 13 | 250 | 3.2 | 8.0 | 0.00 | 0.05 | 0.00 | 100 | |
| 20260506001034 | 13 | 272 | 1.6 | 9.7 | 0.00 | 0.05 | 0.00 | 100 | |
| 20260506000534 | 13 | 217 | 0.0 | 3.2 | 0.00 | 0.05 | 0.00 | 100 | |
| 20260506000034 | 13 | 293 | 0.0 | 0.0 | 0.00 | 0.05 | 0.00 | 100 | |
| 20260505235534 | 13 | 293 | 0.0 | 0.0 | 0.00 | 0.05 | 0.00 | 100 | |
| 20260505235034 | 13 | 293 | 0.0 | 3.2 | 0.00 | 0.05 | 0.00 | 100 | |
| 20260505234534 | 13 | 260 | 0.0 | 3.2 | 0.00 | 0.05 | 0.00 | 100 | |
| 20260505234034 | 13 | 262 | 0.0 | 6.4 | 0.00 | 0.05 | 0.00 | 100 | |
| 20260505233534 | 13 | 270 | 6.4 | 9.7 | 0.00 | 0.05 | 0.00 | 100 | |
| 20260505233034 | 13 | 305 | 0.0 | 3.2 | 0.00 | 0.05 | 0.00 | 100 | |
| 20260505232534 | 13 | 248 | 0.0 | 0.0 | 0.00 | 0.05 | 0.00 | 100 | |
| 20260505232034 | 13 | 248 | 0.0 | 4.8 | 0.00 | 0.05 | 0.00 | 100 | |
| 20260505231534 | 13 | 251 | 0.0 | 3.2 | 0.00 | 0.05 | 0.00 | 100 | |
| 20260505231034 | 13 | 281 | 0.0 | 3.2 | 0.00 | 0.05 | 0.00 | 100 | |
| 20260505230534 | 13 | 270 | 0.0 | 4.8 | 0.00 | 0.05 | 0.00 | 100 | |
| 20260505230034 | 13 | 254 | 0.0 | 4.8 | 0.00 | 0.05 | 0.00 | 100 | |
| 20260505225534 | 13 | 217 | 0.0 | 6.4 | 0.00 | 0.05 | 0.00 | 100 | |
| 20260505225034 | 13 | 320 | 0.0 | 6.4 | 0.00 | 0.05 | 0.00 | 100 | |
| 20260505224534 | 13 | 244 | 1.6 | 8.0 | 0.00 | 0.05 | 0.00 | 100 | |
| 20260505224034 | 13 | 274 | 4.8 | 4.8 | 0.00 | 0.05 | 0.00 | 100 | |
| 20260505223534 | 13 | 291 | 0.0 | 0.0 | 0.00 | 0.05 | 0.00 | 100 | |
| 20260505223034 | 13 | 291 | 0.0 | 4.8 | 0.00 | 0.05 | 0.00 | 100 | |
| 20260505222534 | 13 | 239 | 4.8 | 6.4 | 0.00 | 0.05 | 0.00 | 100 | |
| 20260505222034 | 13 | 225 | 0.0 | 3.2 | 0.00 | 0.05 | 0.00 | 100 | |
| 20260505221534 | 13 | 230 | 1.6 | 4.8 | 0.00 | 0.05 | 0.00 | 100 | |
| 20260505221034 | 13 | 205 | 0.0 | 16.1 | 0.00 | 0.05 | 0.00 | 100 | |
| 20260505220534 | 13 | 267 | 0.0 | 8.0 | 0.00 | 0.05 | 0.00 | 100 | |
| 20260505220034 | 13 | 39 | 1.6 | 9.7 | 0.00 | 0.05 | 0.00 | 100 | |
| 20260505215534 | 14 | 272 | 4.8 | 8.0 | 0.00 | 0.05 | 0.00 | 100 | |
| 20260505215034 | 13 | 260 | 0.0 | 11.3 | 0.00 | 0.05 | 0.00 | 100 | |
| 20260505214534 | 13 | 268 | 0.0 | 12.9 | 0.00 | 0.05 | 0.00 | 100 | |
| 20260505214034 | 14 | 251 | 6.4 | 8.0 | 0.00 | 0.05 | 0.00 | 100 | |
| 20260505213534 | 13 | 289 | 6.4 | 11.3 | 0.00 | 0.05 | 0.00 | 100 | |
| 20260505213034 | 13 | 239 | 0.0 | 8.0 | 0.00 | 0.05 | 0.00 | 100 | |
| 20260505212534 | 13 | 288 | 1.6 | 12.9 | 0.00 | 0.05 | 0.00 | 100 | |
| 20260505212034 | 13 | 281 | 0.0 | 9.7 | 0.00 | 0.05 | 0.00 | 100 | |
| 20260505211534 | 13 | 236 | 0.0 | 4.8 | 0.00 | 0.05 | 0.00 | 100 | |
| 20260505211034 | 14 | 251 | 0.0 | 4.8 | 0.00 | 0.05 | 0.00 | 100 | |
| 20260505210534 | 14 | 268 | 1.6 | 9.7 | 0.00 | 0.05 | 0.00 | 100 | |
| 20260505210034 | 14 | 237 | 0.0 | 11.3 | 0.00 | 0.05 | 0.00 | 100 | |
| 20260505205534 | 14 | 196 | 1.6 | 9.7 | 0.00 | 0.05 | 0.00 | 100 | |
| 20260505205034 | 14 | 226 | 4.8 | 8.0 | 0.00 | 0.05 | 0.00 | 100 | |
| 20260505204534 | 14 | 258 | 3.2 | 12.9 | 0.00 | 0.05 | 0.00 | 100 | |
| 20260505204034 | 14 | 199 | 1.6 | 11.3 | 0.00 | 0.05 | 0.00 | 100 | |
| 20260505203534 | 14 | 279 | 6.4 | 16.1 | 0.00 | 0.05 | 0.00 | 100 | |
| 20260505203034 | 14 | 243 | 0.0 | 8.0 | 0.00 | 0.05 | 0.00 | 100 | |
| 20260505202534 | 14 | 163 | 0.0 | 11.3 | 0.00 | 0.05 | 0.00 | 100 | |
| 20260505202034 | 13 | 271 | 6.4 | 16.1 | 0.00 | 0.05 | 0.00 | 100 | |
| 20260505201534 | 13 | 246 | 8.0 | 11.3 | 0.00 | 0.05 | 0.00 | 100 | |
| 20260505201034 | 13 | 262 | 3.2 | 19.3 | 0.00 | 0.05 | 0.00 | 100 | |
| 20260505200534 | 13 | 240 | 3.2 | 11.3 | 0.00 | 0.05 | 0.00 | 100 | |
| 20260505200034 | 13 | 260 | 1.6 | 14.5 | 0.00 | 0.05 | 0.00 | 100 | |
| 20260505195534 | 13 | 244 | 4.8 | 12.9 | 0.00 | 0.05 | 0.00 | 100 | |
| 20260505195034 | 13 | 292 | 3.2 | 14.5 | 0.00 | 0.05 | 0.00 | 100 | |
| 20260505194534 | 13 | 246 | 6.4 | 16.1 | 0.00 | 0.05 | 0.00 | 100 | |
| 20260505194034 | 13 | 241 | 4.8 | 20.9 | 0.00 | 0.05 | 0.00 | 100 | |
| 20260505193534 | 13 | 277 | 4.8 | 19.3 | 0.00 | 0.05 | 0.00 | 100 | |
| 20260505193034 | 13 | 298 | 1.6 | 8.0 | 0.00 | 0.05 | 0.00 | 100 | |
| 20260505192534 | 13 | 277 | 1.6 | 17.7 | 0.00 | 0.05 | 0.00 | 100 | |
| 20260505192034 | 14 | 270 | 8.0 | 19.3 | 0.00 | 0.05 | 0.00 | 100 | |
| 20260505191534 | 14 | 251 | 8.0 | 22.5 | 0.00 | 0.05 | 0.00 | 100 | |
| 20260505191034 | 14 | 206 | 6.4 | 17.7 | 0.00 | 0.05 | 0.00 | 100 | |
| 20260505190534 | 14 | 258 | 6.4 | 24.1 | 0.00 | 0.05 | 0.00 | 100 | |
| 20260505190034 | 14 | 264 | 6.4 | 16.1 | 0.00 | 0.05 | 0.00 | 100 | |
| 20260505185534 | 14 | 272 | 4.8 | 20.9 | 0.00 | 0.05 | 0.00 | 100 | |
| 20260505185034 | 13 | 236 | 3.2 | 22.5 | 0.00 | 0.05 | 0.00 | 100 | |
| 20260505184534 | 14 | 254 | 0.0 | 14.5 | 0.00 | 0.05 | 0.00 | 100 | |
| 20260505184034 | 14 | 268 | 3.2 | 20.9 | 0.00 | 0.05 | 0.00 | 100 | |
| 20260505183534 | 14 | 319 | 6.4 | 19.3 | 0.00 | 0.05 | 0.00 | 100 | |
| 20260505183034 | 14 | 248 | 3.2 | 12.9 | 0.00 | 0.05 | 0.00 | 100 | |
| 20260505182534 | 14 | 278 | 3.2 | 22.5 | 0.00 | 0.05 | 0.00 | 100 | |
| 20260505182034 | 14 | 277 | 6.4 | 16.1 | 0.00 | 0.05 | 0.00 | 100 | |
| 20260505181534 | 14 | 272 | 4.8 | 30.6 | 0.00 | 0.05 | 0.00 | 100 | |
| 20260505181034 | 14 | 337 | 1.6 | 9.7 | 0.00 | 0.05 | 0.00 | 100 | |
| 20260505180534 | 14 | 285 | 4.8 | 12.9 | 0.00 | 0.05 | 0.00 | 100 | |
| 20260505180034 | 14 | 282 | 0.0 | 9.7 | 0.00 | 0.05 | 0.05 | 100 | |
| 20260505175534 | 14 | 285 | 0.0 | 8.0 | 0.00 | 0.05 | 0.05 | 100 | |
| 20260505175034 | 14 | 281 | 4.8 | 6.4 | 0.00 | 0.05 | 0.05 | 100 | |
| 20260505174534 | 13 | 268 | 1.6 | 8.0 | 0.00 | 0.05 | 0.05 | 100 | |
| 20260505174034 | 13 | 277 | 0.0 | 9.7 | 0.03 | 0.05 | 0.05 | 100 | |
| 20260505173534 | 13 | 90 | 0.0 | 16.1 | 0.03 | 0.05 | 0.05 | 100 | |
| 20260505173034 | 14 | 296 | 0.0 | 4.8 | 0.03 | 0.05 | 0.05 | 100 | |
| 20260505172535 | 13 | 286 | 0.0 | 11.3 | 0.03 | 0.05 | 0.05 | 100 | |
| 20260505172034 | 14 | 285 | 0.0 | 4.8 | 0.03 | 0.05 | 0.05 | 100 | |
| 20260505171535 | 14 | 296 | 1.6 | 4.8 | 0.03 | 0.05 | 0.05 | 100 | |
| 20260505171035 | 14 | 336 | 0.0 | 9.7 | 0.03 | 0.05 | 0.05 | 100 | |
| 20260505170535 | 15 | 270 | 0.0 | 3.2 | 0.03 | 0.05 | 0.05 | 100 | |
| 20260505170035 | 15 | 323 | 0.0 | 6.4 | 0.03 | 0.05 | 0.05 | 100 | |
| 20260505165535 | 15 | 303 | 4.8 | 16.1 | 0.03 | 0.05 | 0.05 | 100 | |
| 20260505165035 | 15 | 305 | 0.0 | 16.1 | 0.03 | 0.05 | 0.05 | 100 | |
| 20260505164535 | 15 | 338 | 1.6 | 14.5 | 0.03 | 0.05 | 0.05 | 100 | |
| 20260505164035 | 15 | 243 | 11.3 | 17.7 | 0.00 | 0.03 | 0.03 | 100 | |
| 20260505163535 | 15 | 270 | 12.9 | 16.1 | 0.00 | 0.03 | 0.03 | 100 | |
| 20260505163035 | 13 | 75 | 12.9 | 12.9 | 0.00 | 0.03 | 0.03 | 100 | |
| 20260505162535 | 14 | 80 | 1.6 | 1.6 | 0.00 | 0.03 | 0.03 | 100 | |
| 20260505162035 | 14 | 23 | 0.0 | 11.3 | 0.00 | 0.03 | 0.03 | 100 | |
| 20260505161535 | 14 | 70 | 3.2 | 9.7 | 0.03 | 0.03 | 0.03 | 100 | |
| 20260505161035 | 14 | 70 | 3.2 | 11.3 | 0.03 | 0.03 | 0.03 | 100 | |
| 20260505160535 | 14 | 54 | 4.8 | 6.4 | 0.03 | 0.03 | 0.03 | 100 | |
| 20260505153035 | 17 | 174 | 0.0 | 3.2 | 0.03 | 0.03 | 0.03 | 100 | |
| 20260505152535 | 17 | 306 | 1.6 | 4.8 | 0.03 | 0.03 | 0.03 | 100 | |
| 20260505152035 | 17 | 295 | 0.0 | 9.7 | 0.03 | 0.03 | 0.03 | 100 | |
| 20260505151535 | 17 | 315 | 0.0 | 12.9 | 0.00 | 0.00 | 0.00 | 100 | |
| 20260505151035 | 17 | 317 | 1.6 | 8.0 | 0.00 | 0.00 | 0.00 | 100 | |
| 20260505150535 | 18 | 277 | 0.0 | 8.0 | 0.00 | 0.00 | 0.00 | 100 | |
| 20260505140535 | 18 | 344 | 1.6 | 16.1 | 0.00 | 0.00 | 0.00 | 100 | |
| 20260505125035 | 19 | 195 | 0.0 | 17.7 | 0.00 | 0.00 | 0.00 | 100 | |
| 20260505124535 | 18 | 271 | 12.9 | 27.4 | 0.00 | 0.00 | 0.00 | 100 | |
| 20260505124035 | 18 | 246 | 12.9 | 22.5 | 0.00 | 0.00 | 0.00 | 100 | |
| 20260505123535 | 18 | 300 | 0.0 | 17.7 | 0.00 | 0.00 | 0.00 | 100 | |
| 20260505123035 | 17 | 257 | 11.3 | 17.7 | 0.00 | 0.00 | 0.00 | 100 | |
| 20260505122535 | 17 | 316 | 0.0 | 16.1 | 0.00 | 0.00 | 0.00 | 100 | |
| 20260505122035 | 17 | 271 | 9.7 | 16.1 | 0.00 | 0.00 | 0.00 | 100 | |
| 20260505121535 | 17 | 255 | 1.6 | 14.5 | 0.00 | 0.00 | 0.00 | 100 | |
| 20260505121035 | 17 | 281 | 4.8 | 16.1 | 0.00 | 0.00 | 0.00 | 100 | |
| 20260505120535 | 17 | 274 | 6.4 | 16.1 | 0.00 | 0.00 | 0.00 | 100 | |
| 20260505120035 | 16 | 216 | 3.2 | 11.3 | 0.00 | 0.00 | 0.00 | 100 | |
| 20260505115535 | 16 | 227 | 3.2 | 12.9 | 0.00 | 0.00 | 0.00 | 100 | |
| 20260505115035 | 16 | 260 | 8.0 | 14.5 | 0.00 | 0.00 | 0.00 | 100 | |
| 20260505114535 | 15 | 232 | 6.4 | 11.3 | 0.00 | 0.00 | 0.00 | 100 | |
| 20260505114035 | 15 | 264 | 9.7 | 11.3 | 0.00 | 0.00 | 0.00 | 100 | |
| 20260505113535 | 15 | 270 | 6.4 | 16.1 | 0.00 | 0.00 | 0.00 | 100 | |
| 20260505113035 | 15 | 312 | 1.6 | 14.5 | 0.00 | 0.00 | 0.00 | 100 | |
| 20260505112535 | 15 | 241 | 4.8 | 17.7 | 0.00 | 0.00 | 0.00 | 100 | |
| 20260505112035 | 15 | 215 | 1.6 | 11.3 | 0.00 | 0.00 | 0.00 | 100 | |
| 20260505111535 | 15 | 212 | 3.2 | 11.3 | 0.00 | 0.00 | 0.00 | 100 | |
| 20260505111035 | 15 | 270 | 9.7 | 17.7 | 0.00 | 0.00 | 0.00 | 100 | |
| 20260505110535 | 15 | 271 | 14.5 | 20.9 | 0.00 | 0.00 | 0.00 | 100 |